Regional Weather Roundup
Issued by NWS Newport/Morehead, NC

Current Version | Previous Version | Graphics & Text | Print | Product List | Glossary Off
Versions: 1 2 3 4 5 6 7 8 9 10 11 12 13 14 15 16 17 18 19 20 21 22 23 24 25 26 27 28 29 30 31 32 33 34 35 36 37 38 39 40 41 42 43 44 45 46 47 48 49 50

000
ASUS42 KMHX 010322
RWRMHX
WEATHER ROUNDUP FOR EASTERN NORTH CAROLINA
NATIONAL WEATHER SERVICE NEWPORT/MOREHEAD CITY NC
1100 PM EDT SUN AUG 31 2014

NOTE: "FAIR" INDICATES FEW OR NO CLOUDS BELOW 12,000 FEET
WITH NO SIGNIFICANT WEATHER AND/OR OBSTRUCTIONS TO VISIBILITY

NCZ015>017-031-032-045>047-102-103-010400-
NORTH COAST

CITY           SKY/WX    TMP DP  RH WIND       PRES   REMARKS
EDENTON        CLEAR     78  74  85 S7        30.11S
ELIZABETH CITY CLEAR     78  74  87 S8        30.10S
KITTY HAWK     CLEAR     79  75  87 S5        30.11S
MANTEO         CLEAR     79  75  87 S10       30.13R

$$

NCZ045>047-081-094-103-104-010400-
CENTRAL COAST

CITY           SKY/WX    TMP DP  RH WIND       PRES   REMARKS
FRISCO         MOCLDY    80  76  87 S7        30.14R
SWANQUARTER      N/A     81 N/A N/A SW9G16    30.09S

$$

NCZ095-097-098-100-101-010400-
SOUTHERN COAST

CITY           SKY/WX    TMP DP  RH WIND       PRES   REMARKS
BEAUFORT       PTCLDY    82  74  76 S10       30.13S
CEDAR ISLAND     N/A     79 N/A N/A S3        30.18S
JACKSONVILLE   PTCLDY    78  75  90 S5        30.12S
NEWPORT        NOT AVBL
PINEY ISLAND   CLEAR     80  77  90 S6        30.12S
WILMINGTON     PTCLDY    78  75  90 S5        30.12S


$$

NCZ011>013-027>030-043-044-078>080-089-090>093-098-010400-
COASTAL PLAIN

CITY           SKY/WX    TMP DP  RH WIND       PRES   REMARKS
AHOSKIE        CLEAR     76  72  86 S6        30.10S
CLINTON        NOT AVBL
ELIZABETHTOWN  CLEAR     77  74  90 SE5       30.11F
GOLDSBORO      CLEAR     78  78  98 S7        30.09S
GREENVILLE     CLEAR     79  73  83 SW8       30.12S
HAVELOCK       CLEAR     78  74  87 S5        30.14R
KENANSVILLE    CLEAR     76  73  89 CALM      30.13S
KINSTON        CLEAR     79  74  86 S8        30.12S
NEW BERN       CLEAR     79  74  84 S3        30.13S
RICHLANDS      CLEAR     75  72  88 S5        30.13R
ROANOKE RAPIDS NOT AVBL
ROCKY MOUNT    CLEAR     79  73  82 S6        30.10R
WASHINGTON     CLEAR     77  74  88 S3        30.12S
WHITEVILLE     CLEAR     77  74  89 S3        30.11S

$$

AMZ130-135-150-152-154-156-158-170-250-252-270-ANZ085-086-088-633-658-670-010400-
MARINE OBSERVATIONS

STATION/POSITION TIME  TEMP    WIND        PRES    WAVE   SWELL
                       AIR SEA DIR/SP/G            HT/PER HT/PER
                 (UTC) (F)     (DEG/KT/KT) (MB)    (FT/S) (FT/S)
CHESAPEAKE LIGHT 0300   80     200/ 21/ 22 1018.9
BUOY 44014       0300   79 78  190/ 14/ 16 1019.0    3/ 8   2/ 8
DUCK             0300   80 76  190/ 11/ 15 1018.9
2E DUCK          0300                        N/A     2/ 8
OREGON INLET     0300   81 82  190/ 14/ 16 1019.9
BUOY 44095       0300      78                N/A     3/ 8
20E OREGON INLET NOT AVBL
HATTERAS CG      0300   81 84  220/  8/ 12 1021.0
DIAMOND BUOY     0300   80     180/ 14/ 16 1020.3    4/ 8   3/ 8
CAPE LOOKOUT     0300   81     200/  7/  9 1020.3
BEAUFORT LAB     0300   82 83  200/ 10/ 12 1019.8
30 SE NEW RIVER  0300   83 83  210/ 12/ 14 1020.5    3/ 8   2/ 8
5 SE WRIGHTSVILL 0300   79 82  210/ 12/ 14   N/A
BUOY 41002       0211   81 84  170/  6/  8 1022.1    3/ 8   3/ 8
BUOY 41004       0300   82 83  210/  8/ 10 1019.8    2/ 9   2/ 9

$$



USA.gov is the U.S. government's official web portal to all federal, state and local government web resources and services.